Вернуться в каталог

CZ-6A DEB

АктивенPO
NORAD 61266·DEBRIS·🇨🇳 China

Запущен Aug 6, 2024 с Taiyuan Satellite Launch Center

Loading…

Ближайшие Пролёты (ближайшие 24 часа)

TLE

СвежийSource: Space-Track

Эпоха: Sep 14, 2026, 08:45 UTC

1 61266U 24140SB  26257.36459137  .00009334  00000-0  16505-2 0  9990
2 61266  88.5779 219.6694 0044651 231.0583 128.6650 14.66657209108829

Отслеживайте CZ-6A DEB в реальном времени с AllMySat

Download on the App Store